BMCB-8 Weather Reports


time (UTC)temp
C
wind
direction
speed
KPH
gust
KPH
rain 1hr
cm
rain 24hr
cm
rain mn
cm
humidity
%
barometer
mb
20260503055051 13 178 8.0 19.3 0.00 0.00 0.00 81 1011.9
20260503052053 13 179 8.0 17.7 0.00 0.00 0.00 84 1012.2
20260503051054 13 170 6.4 14.5 0.00 0.00 0.00 84 1012.2
20260503050053 13 157 6.4 11.3 0.00 0.00 0.00 83 1012.1
20260503045055 13 157 6.4 11.3 0.00 0.00 0.00 83 1012.1
20260503043054 13 165 8.0 12.9 0.00 0.00 0.00 82 1012.2
20260503042053 13 168 6.4 12.9 0.00 0.00 0.00 81 1012.2
20260503041051 14 180 6.4 9.7 0.00 0.00 0.00 80 1012.3
20260503040052 13 178 6.4 12.9 0.00 0.03 0.00 81 1012.4
20260503035054 13 174 6.4 11.3 0.00 0.03 0.00 81 1012.4
20260503034055 13 189 4.8 8.0 0.00 0.03 0.00 81 1012.5
20260503033054 13 179 4.8 8.0 0.00 0.03 0.00 81 1012.5
20260503031056 14 186 4.8 8.0 0.00 0.03 0.00 81 1012.5
20260503030055 13 176 4.8 8.0 0.00 0.03 0.00 82 1012.5
20260503025056 13 175 4.8 8.0 0.00 0.03 0.00 83 1012.6
20260503024056 13 166 6.4 9.7 0.00 0.03 0.00 83 1012.6
20260503023051 13 184 6.4 11.3 0.00 0.03 0.00 85 1012.8
20260503022054 13 146 6.4 9.7 0.00 0.03 0.00 85 1012.8
20260503021057 13 135 6.4 9.7 0.00 0.03 0.00 86 1012.9
20260503020054 13 122 6.4 12.9 0.00 0.03 0.00 87 1012.9
20260503015056 13 133 6.4 11.3 0.00 0.03 0.00 85 1012.8
20260503013058 14 220 4.8 8.0 0.00 0.03 0.00 81 1013.0
20260503012055 14 210 4.8 9.7 0.00 0.03 0.00 81 1013.2
20260503011057 14 198 6.4 9.7 0.00 0.03 0.00 81 1013.3
20260503003058 15 217 4.8 9.7 0.00 0.03 0.00 79 1013.4
20260503002058 15 215 6.4 9.7 0.00 0.03 0.00 79 1013.4
20260503001056 15 211 6.4 11.3 0.00 0.03 0.00 79 1013.5
20260503000104 15 206 8.0 14.5 0.00 0.03 0.00 78 1013.5
20260502235111 15 207 6.4 11.3 0.00 0.03 0.00 78 1013.6
20260502234106 15 205 8.0 12.9 0.00 0.03 0.00 77 1013.7
20260502232107 15 184 6.4 11.3 0.00 0.03 0.00 76 1013.6
20260502231104 15 185 6.4 14.5 0.00 0.03 0.00 76 1013.7
20260502223106 16 178 6.4 14.5 0.00 0.03 0.00 76 1013.7
20260502222108 16 180 6.4 12.9 0.00 0.03 0.00 76 1013.7
20260502221108 16 185 4.8 12.9 0.00 0.03 0.00 75 1013.7
20260502215110 16 174 8.0 17.7 0.00 0.03 0.03 76 1013.8
20260502213113 16 174 9.7 14.5 0.00 0.03 0.03 74 1013.8
20260502211107 17 179 9.7 16.1 0.00 0.03 0.03 72 1013.8
20260502210111 17 182 9.7 17.7 0.00 0.03 0.03 72 1013.8
20260502205112 17 185 9.7 17.7 0.00 0.03 0.03 71 1013.8
20260502204110 17 183 8.0 16.1 0.00 0.03 0.03 71 1013.9
20260502202118 17 332 6.4 14.5 0.00 0.03 0.03 71 1013.9
20260502201114 17 180 9.7 20.9 0.00 0.03 0.03 71 1014.0
20260502200114 17 176 9.7 17.7 0.00 0.03 0.03 72 1014.1
20260502195103 16 170 11.3 19.3 0.00 0.03 0.03 73 1014.1
20260502193110 16 151 9.7 14.5 0.00 0.03 0.03 78 1014.3
20260502192109 16 149 6.4 12.9 0.00 0.03 0.03 78 1014.3
20260502191114 17 132 4.8 6.4 0.00 0.03 0.03 76 1014.2
20260502190108 17 138 3.2 6.4 0.00 0.03 0.03 76 1014.3
20260502185110 17 126 3.2 6.4 0.00 0.03 0.03 75 1014.3
20260502184106 17 152 4.8 9.7 0.00 0.03 0.03 74 1014.3
20260502183111 18 155 8.0 12.9 0.00 0.03 0.03 73 1014.2
20260502182106 18 152 9.7 16.1 0.00 0.03 0.03 70 1014.1
20260502180112 20 196 9.7 16.1 0.00 0.03 0.03 66 1013.9
20260502170105 21 264 6.4 9.7 0.00 0.03 0.03 59 1013.8
20260502163107 21 271 6.4 12.9 0.00 0.03 0.03 56 1014.2
20260502162104 21 217 6.4 16.1 0.00 0.03 0.03 57 1014.4
20260502161107 22 193 6.4 14.5 0.00 0.03 0.03 58 1014.4
20260502160106 22 294 3.2 9.7 0.00 0.03 0.03 54 1014.4
20260502152107 22 220 4.8 11.3 0.00 0.03 0.03 57 1014.9
20260502151110 22 263 8.0 16.1 0.00 0.03 0.03 56 1015.0
20260502123058 21 277 12.9 19.3 0.00 0.03 0.03 60 1017.6
20260502122059 21 271 14.5 22.5 0.00 0.03 0.03 61 1017.7
20260502121059 20 279 14.5 20.9 0.00 0.03 0.03 61 1017.9
20260502115041 21 247 14.5 25.7 0.00 0.03 0.03 62 1018.1
20260502114057 21 247 14.5 25.7 0.00 0.03 0.03 60 1018.2
20260502113046 20 240 12.9 22.5 0.00 0.03 0.03 61 1018.3
20260502112053 20 236 12.9 22.5 0.00 0.03 0.03 62 1018.4
20260502111058 21 95 11.3 19.3 0.00 0.03 0.03 63 1018.5
20260502110056 21 205 9.7 19.3 0.00 0.03 0.03 65 1018.6
20260502105022 20 226 9.7 20.9 0.00 0.03 0.03 67 1018.7
20260502104056 20 226 9.7 20.9 0.00 0.03 0.03 67 1018.8
20260502103054 20 239 8.0 19.3 0.00 0.03 0.03 66 1018.8
20260502102055 20 234 11.3 20.9 0.00 0.03 0.03 66 1018.9
20260502101034 20 222 12.9 24.1 0.00 0.03 0.03 65 1019.1
20260502091057 19 194 8.0 19.3 0.00 0.03 0.03 70 1019.3
20260502071055 15 206 4.8 9.7 0.00 0.03 0.03 75 1020.2
20260502070050 14 195 3.2 6.4 0.00 0.03 0.03 76 1020.3
20260502064054 13 187 8.0 14.5 0.00 0.03 0.03 78 1020.5
20260502063054 13 183 8.0 16.1 0.00 0.03 0.03 79 1020.4
20260502061055 12 168 6.4 11.3 0.00 0.03 0.03 80 1020.5
20260502060056 12 159 6.4 11.3 0.00 0.03 0.03 81 1020.6